#timestamp,LO_Frequency,Hit,StdDev 
1510074015.8,286046986.2,N
1510074035.7,286046989.7,N
1510074055.5,286046993.5,N
1510074075.4,286046997.1,N
1510074095.2,286046995.6,N
1510074115.0,286046997.7,N
1510074116.0,286046997.7,N
1510074135.8,286047001.0,N
1510074155.6,286047003.8,N
1510074175.5,286047002.6,N
1510074195.3,286047006.8,N
1510074215.1,286047011.1,N
1510074235.9,286047013.5,N
1510074255.7,286047016.6,N
1510074275.6,286047014.6,N
1510074295.4,286047015.3,N
1510074315.3,286047012.9,N
1510074335.1,286047010.2,N
1510074355.8,286047009.9,N
1510074375.7,286047011.4,N
1510074395.5,286047013.5,N
1510074415.4,286047013.6,N
1510074435.2,286047010.8,N
1510074455.0,286047009.7,N
1510074455.9,286047009.7,N
1510074475.8,286047011.1,N
1510074495.6,286047017.2,N
1510074515.5,286047015.4,N
1510074535.3,286047014.7,N
1510074555.1,286047016.6,N
1510074575.9,286047016.8,N
1510074595.7,286047016.4,N
1510074615.5,286047017.2,N
1510074635.4,286047018.6,N
1510074655.2,286047015.0,N
1510074675.1,286047014.9,N
1510074676.0,286047014.9,N
1510074695.8,286047015.3,Y
1510074715.7,286047001.5,P
1510074735.5,286047006.0,N
1510074755.3,286047001.4,N
1510074775.2,286047004.4,N
1510074795.0,286047002.7,N
1510074795.9,286047002.7,N
1510074815.8,286047001.5,N
1510074835.6,286047004.3,N
1510074855.4,286047003.8,N
1510074875.3,286047004.6,N
1510074895.1,286047005.3,N
1510074915.9,286047005.9,N
1510074935.7,286047005.8,N
1510074955.5,286047005.4,N
1510074975.4,286047010.0,Y
1510074995.2,286047002.9,P
1510075015.1,286047007.2,P
1510075016.0,286047007.2,P
1510075035.8,286047009.3,Y
1510075055.7,286046999.7,P
1510075075.5,286047003.4,N
1510075095.3,286047010.7,P
1510075115.2,286047011.2,N
1510075135.0,286047010.2,N
1510075135.9,286047010.2,N
1510075155.8,286047004.8,N
1510075175.6,286047007.6,N
1510075195.4,286047009.1,N
1510075215.3,286047004.9,N
1510075235.1,286047005.4,N
1510075255.9,286047004.9,N
1510075275.7,286047006.3,N
1510075295.5,286047008.8,N
1510075315.4,286047005.2,N
1510075335.2,286047007.4,N
1510075355.1,286047006.6,N
1510075356.0,286047006.6,N
1510075375.8,286047004.7,N
1510075395.7,286047006.3,N
1510075415.5,286047007.3,N
1510075435.3,286047005.2,N
1510075455.2,286047007.3,N
1510075475.9,286047008.0,Y
1510075495.8,286047001.3,P
1510075515.6,286047005.5,N
1510075535.4,286047006.3,N
1510075555.3,286047007.5,Y
1510075575.1,286047000.8,P
1510075595.9,286046999.9,N
1510075615.7,286047000.0,N
1510075635.5,286047002.2,N
1510075655.4,286047003.3,N
1510075675.2,286047005.7,Y
1510075695.1,286047002.1,P
1510075696.0,286047002.1,P
1510075715.8,286047004.8,P
1510075735.7,286047003.4,N
1510075755.5,286047004.7,Y
1510075775.3,286047007.1,P
1510075795.2,286047006.3,N
1510075815.0,286047008.4,P
1510075815.9,286047008.4,Y
1510075835.8,286046996.0,P
1510075855.6,286046989.0,N
1510075875.5,286046990.4,N
1510075895.3,286046992.7,N
1510075915.1,286046996.4,N
1510075935.9,286046996.1,N
1510075955.7,286046995.9,N
1510075975.6,286046995.0,N
1510075995.4,286046997.1,N
1510076015.2,286047002.5,N
1510076035.1,286046999.0,N
1510076036.0,286046999.0,N
1510076055.8,286046998.2,N
1510076075.7,286046995.2,N
1510076095.5,286046995.3,N
1510076115.3,286047000.7,N
1510076135.2,286046998.2,N
1510076155.0,286046996.6,N
1510076155.9,286046996.6,N
1510076175.8,286046999.4,N
1510076195.6,286046996.9,N
1510076215.4,286046998.1,N
1510076235.3,286046999.2,N
1510076255.1,286046999.3,N
1510076275.9,286046997.2,N
1510076295.7,286046996.9,N
1510076315.6,286046995.6,N
1510076335.4,286046993.8,N
1510076355.3,286046994.2,N
1510076375.1,286046991.3,N
1510076395.8,286046989.4,Y
1510076415.7,286046992.3,P
1510076435.5,286046991.1,P
1510076455.4,286046987.4,P
1510076475.2,286046992.5,N
1510076495.1,286046992.3,N
1510076496.0,286046992.3,N
1510076515.8,286046992.5,Y
1510076535.7,286047002.9,P
1510076555.5,286047005.4,N
1510076575.3,286047002.5,N
1510076595.2,286047000.6,N
1510076615.0,286047000.3,N
1510076615.9,286047000.3,N
1510076635.8,286046998.5,N
1510076655.6,286047000.0,N
1510076675.4,286047000.5,N
1510076695.3,286046999.0,N
1510076715.1,286046998.2,N
1510076735.9,286046998.7,N
1510076755.7,286046998.7,N
1510076775.5,286047001.6,N
1510076795.4,286047004.6,N
1510076815.2,286047002.0,N
1510076835.1,286046999.9,N
1510076836.0,286046999.9,N
1510076855.8,286047002.6,N
1510076875.6,286046998.1,N
1510076895.5,286047001.2,N
1510076915.3,286047004.0,N
1510076935.2,286047007.2,N
1510076955.9,286047003.4,N
1510076975.7,286047001.6,N
1510076995.6,286047004.3,N
1510077015.4,286046998.6,N
1510077035.3,286046995.3,N
1510077055.1,286046999.3,N
1510077075.8,286046998.6,N
1510077095.7,286047003.9,N
1510077115.5,286047005.4,N
1510077135.4,286047002.3,N
1510077155.2,286047000.1,N
1510077175.0,286047002.1,N
1510077176.0,286047002.1,N
1510077195.8,286047003.2,N
1510077215.6,286047005.6,N
1510077235.5,286047010.4,Y
1510077255.3,286047003.3,P
1510077275.2,286047007.2,P
1510077295.9,286047005.0,N
1510077315.7,286047004.6,N
1510077335.6,286047006.8,Y
1510077355.4,286047005.9,P
1510077375.3,286047005.7,P
1510077395.1,286047003.0,P
1510077415.8,286047001.9,N
1510077435.7,286047001.8,N
1510077455.5,286047000.2,N
1510077475.4,286047001.8,N
1510077495.2,286047005.1,N
1510077515.0,286047001.7,N
1510077516.0,286047001.7,N
1510077535.8,286047004.4,N
1510077555.6,286047002.7,N
1510077575.5,286046999.8,N
1510077595.3,286047000.0,N
